Location: Cluj-Napoca
(46.7712°N, 23.6236°E)
Time: 10:38:46
(UTC+03:00)

ISS - Pass Details

Date: 07 May 2021
Orbit: 417 x 422 km, 51.6° (Epoch: 15 May)

Event Time Altitude Azimuth Distance (km) Brightness Sun altitude
Exits shadow 03:02:23 54° 30° (NNE) 519 -3.0 -22.5°
Drops below altitude 10° 03:05:12 10° 61° (ENE) 1,507 -0.2 -22.3°
Sets 03:07:19 0° 65° (ENE) 2,374 0.9 -22.1°
